Regional Weather Roundup
Issued by NWS

Home | Current Version | Previous Version | Text Only | Print | Product List | Glossary On
Versions: 1 2 3 4 5 6 7 8 9 10 11 12 13 14 15 16 17 18 19 20 21 22 23 24 25 26 27 28 29 30 31 32 33 34 35 36 37 38 39 40 41 42 43 44 45 46 47 48 49 50
000
ASUS44 KOUN 290910
RWROK

WEATHER ROUNDUP FOR OKLAHOMA
NATIONAL WEATHER SERVICE NORMAN OK
400 AM CDT SUN MAY 29 2016

NOTE: "FAIR" INDICATES FEW OR NO CLOUDS BELOW 12,000 FEET WITH NO
      SIGNIFICANT WEATHER AND/OR OBSTRUCTIONS TO VISIBILITY.

OKZ001>007-009>012-014-015-017-291000-
NORTHWEST OKLAHOMA AND THE PANHANDLE

CITY           SKY/WX    TMP DP  RH WIND       PRES   REMARKS
GAGE           CLEAR     60  55  83 E3        30.05R
GUYMON         CLOUDY    58  49  72 N3        30.09F
ENID/WOODRING  CLEAR     64  64 100 S6        30.02R
$$

OKZ016-021>023-033>039-044-045-291000-
SOUTHWEST OKLAHOMA

CITY           SKY/WX    TMP DP  RH WIND       PRES   REMARKS
LAWTON/REGL    CLOUDY    68  63  84 SE5       30.04R
LAWTON/FT SILL CLOUDY    68  62  82 S7        30.02R
CLINTON        PTCLDY    69  66  90 S9        30.06R
HOBART         PTCLDY    69  63  81 S7        30.04R
ALTUS AFB      PTCLDY    66  60  81 SE5       30.02S
$$

OKZ018>020-024>031-291000-
CENTRAL OKLAHOMA

CITY           SKY/WX    TMP DP  RH WIND       PRES   REMARKS
OKLAHOMA CITY  CLOUDY    71  70  96 S8        30.04R
OKC/WILEY POST CLOUDY    72  69  90 S12       30.04R
OKC/TINKER AFB CLOUDY    72  69  93 S10       30.04R
STILLWATER     CLEAR     66  64  93 SE3       30.04R
GUTHRIE        PTCLDY    70  68  93 SE5       30.04R
$$

OKZ008-013-054>072-291000-
NORTHEAST OKLAHOMA

CITY           SKY/WX    TMP DP  RH WIND       PRES   REMARKS
TULSA          CLEAR     71  68  90 S5        30.03S
TULSA/JONES    PTCLDY    66  65  96 CALM      30.04S
PONCA CITY     CLEAR     66  63  90 SE5       30.03S
BARTLESVILLE   CLEAR     60  59  96 CALM      30.06R
MUSKOGEE       CLOUDY    67  65  93 CALM      30.06R
$$

OKZ032-040>043-046>053-073>077-291000-
SOUTH CENTRAL/SOUTHEAST OKLAHOMA

CITY           SKY/WX    TMP DP  RH WIND       PRES   REMARKS
ARDMORE/DWNTWN CLOUDY    66  64  94 CALM      30.04S
MCALESTER      CLOUDY    70  67  90 CALM      30.05S
$$





USA.gov is the U.S. government's official web portal to all federal, state and local government web resources and services.